📊 Raw Sensor Data

Showing records 51826 to 51850 of 85,154 total

ID Distance (ft) Battery V Battery A Int Temp (°F) Int Humid (%) Ext Temp (°F) Solar V RSSI SNR Time Stamp
33341 14.4 3.80 -5 53 39 54 0.00 -71 8 02/24/2025 10:30 PM
33340 14.4 3.80 -5 53 39 54 0.00 -70 8 02/24/2025 10:15 PM
33339 14.4 3.80 -5 53 39 54 0.10 -71 7 02/24/2025 10:00 PM
33338 14.4 3.80 -5 53 39 55 0.00 -72 8 02/24/2025 09:45 PM
33337 14.4 3.80 -5 53 39 55 0.10 -70 8 02/24/2025 09:30 PM
33336 14.4 3.85 -5 53 39 54 0.00 -71 8 02/24/2025 09:15 PM
33335 14.4 3.80 -5 54 39 56 0.00 -70 8 02/24/2025 09:00 PM
33334 14.4 3.80 -5 54 39 56 0.00 -69 8 02/24/2025 08:45 PM
33333 14.4 3.86 -5 54 39 56 0.00 -71 8 02/24/2025 08:30 PM
33332 14.4 3.80 -5 54 40 55 0.00 -71 8 02/24/2025 08:15 PM
33331 14.4 3.81 -5 55 40 56 0.00 -71 8 02/24/2025 08:00 PM
33330 14.4 3.80 -5 55 40 56 0.00 -70 7 02/24/2025 07:45 PM
33329 14.4 3.86 -5 55 40 57 0.00 -71 8 02/24/2025 07:30 PM
33328 14.4 3.78 -5 56 40 57 0.10 -69 8 02/24/2025 07:15 PM
33327 14.4 3.79 -5 56 41 57 0.00 -71 8 02/24/2025 07:00 PM
33326 14.4 3.86 -5 57 41 58 0.00 -70 8 02/24/2025 06:45 PM
33325 14.4 3.79 -5 58 41 58 0.00 -70 8 02/24/2025 06:30 PM
33324 14.4 3.78 -5 58 42 59 0.50 -71 7 02/24/2025 06:15 PM
33323 14.4 3.78 -10 60 42 59 3.70 -71 8 02/24/2025 06:00 PM
33322 14.5 3.87 0 62 42 60 4.50 -70 8 02/24/2025 05:45 PM
33321 14.5 3.92 5 65 41 62 4.50 -71 8 02/24/2025 05:30 PM
33320 14.5 3.96 58 67 40 63 4.50 -71 8 02/24/2025 05:15 PM
33319 14.5 3.91 0 65 42 63 4.50 -70 8 02/24/2025 05:00 PM
33318 14.5 3.84 7 66 42 64 4.50 -70 8 02/24/2025 04:45 PM
33317 14.5 3.78 0 70 40 66 5.10 -71 7 02/24/2025 04:30 PM